Time,TemperatureF,DewpointF,PressureIn,WindDirection,WindDirectionDegrees,WindSpeedMPH,WindSpeedGustMPH,Humidity,HourlyPrecipIn,Conditions,Clouds,dailyrainin,SoftwareType,DateUTC
2013-07-02 00:02:00,64.9,63.0,29.21,NNW,337,2.0,6.0,93,0.00,,,0.00,Rainwise IP-100,2013-07-02 04:02:00,
2013-07-02 00:03:00,65.0,65.0,29.21,North,360,1.0,6.0,100,0.00,,,0.00,Rainwise IP-100,2013-07-02 04:03:00,
2013-07-02 00:04:00,64.9,63.5,29.21,North,360,0.0,6.0,95,0.00,,,0.00,Rainwise IP-100,2013-07-02 04:04:00,
2013-07-02 00:06:00,64.8,63.0,29.21,West,270,2.0,4.0,93,0.00,,,0.00,Rainwise IP-100,2013-07-02 04:06:00,
2013-07-02 00:11:00,64.6,62.5,29.21,North,360,0.0,4.0,93,0.00,,,0.00,Rainwise IP-100,2013-07-02 04:11:00,
2013-07-02 00:16:00,64.4,62.5,29.21,WNW,292,1.0,5.0,93,0.06,,,0.01,Rainwise IP-100,2013-07-02 04:16:00,
2013-07-02 00:21:00,64.3,62.5,29.21,ENE,67,2.0,5.0,93,0.06,,,0.01,Rainwise IP-100,2013-07-02 04:21:00,
2013-07-02 00:26:00,64.2,62.0,29.21,NE,45,1.0,6.0,93,0.00,,,0.01,Rainwise IP-100,2013-07-02 04:26:00,
2013-07-02 00:31:00,64.1,62.0,29.21,North,360,2.0,6.0,93,0.00,,,0.01,Rainwise IP-100,2013-07-02 04:31:00,
2013-07-02 00:36:00,63.9,62.0,29.21,North,360,0.0,4.0,93,0.00,,,0.01,Rainwise IP-100,2013-07-02 04:36:00,
2013-07-02 00:41:00,63.9,62.0,29.21,NW,315,0.0,3.0,93,0.00,,,0.01,Rainwise IP-100,2013-07-02 04:41:00,
2013-07-02 00:46:00,63.9,62.0,29.21,North,360,2.0,4.0,93,0.00,,,0.01,Rainwise IP-100,2013-07-02 04:46:00,
2013-07-02 00:51:00,63.9,62.0,29.21,North,360,0.0,5.0,93,0.00,,,0.01,Rainwise IP-100,2013-07-02 04:51:00,
2013-07-02 00:56:00,63.9,62.0,29.21,North,360,0.0,2.0,94,0.00,,,0.01,Rainwise IP-100,2013-07-02 04:56:00,
2013-07-02 01:01:00,63.8,62.0,29.21,NW,315,0.0,3.0,93,0.00,,,0.01,Rainwise IP-100,2013-07-02 05:01:00,
2013-07-02 01:07:00,63.8,62.0,29.21,North,360,2.0,2.0,93,0.00,,,0.01,Rainwise IP-100,2013-07-02 05:07:00,
2013-07-02 01:12:00,63.7,61.5,29.21,NNW,337,0.0,5.0,93,0.00,,,0.01,Rainwise IP-100,2013-07-02 05:12:00,
2013-07-02 01:17:00,63.6,61.5,29.21,North,360,2.0,6.0,93,0.00,,,0.01,Rainwise IP-100,2013-07-02 05:17:00,
2013-07-02 01:22:00,63.5,61.5,29.21,North,360,0.0,4.0,93,0.00,,,0.01,Rainwise IP-100,2013-07-02 05:22:00,
2013-07-02 01:27:00,63.4,61.0,29.21,NNE,22,2.0,5.0,92,0.00,,,0.01,Rainwise IP-100,2013-07-02 05:27:00,
2013-07-02 01:32:00,63.4,61.0,29.21,North,360,0.0,6.0,92,0.00,,,0.01,Rainwise IP-100,2013-07-02 05:32:00,
2013-07-02 01:37:00,63.3,61.0,29.21,NE,45,3.0,4.0,92,0.06,,,0.02,Rainwise IP-100,2013-07-02 05:37:00,
2013-07-02 01:42:00,63.3,61.0,29.21,NNW,337,0.0,4.0,92,0.06,,,0.02,Rainwise IP-100,2013-07-02 05:42:00,
2013-07-02 01:47:00,63.2,60.5,29.21,NNW,337,0.0,3.0,92,0.00,,,0.02,Rainwise IP-100,2013-07-02 05:47:00,
2013-07-02 01:52:00,63.1,60.5,29.21,NNW,337,0.0,0.0,92,0.00,,,0.02,Rainwise IP-100,2013-07-02 05:52:00,
2013-07-02 01:57:00,63.1,60.5,29.21,NNW,337,0.0,2.0,92,0.00,,,0.02,Rainwise IP-100,2013-07-02 05:57:00,
2013-07-02 02:02:00,63.3,63.5,29.21,North,360,0.0,3.0,100,0.00,,,0.02,Rainwise IP-100,2013-07-02 06:02:00,
2013-07-02 02:08:00,63.1,63.0,29.21,ENE,67,0.0,3.0,100,0.00,,,0.02,Rainwise IP-100,2013-07-02 06:08:00,
2013-07-02 02:13:00,63.1,63.0,29.21,North,360,0.0,4.0,100,0.00,,,0.02,Rainwise IP-100,2013-07-02 06:13:00,
2013-07-02 02:18:00,63.1,63.0,29.21,North,360,0.0,0.0,100,0.00,,,0.02,Rainwise IP-100,2013-07-02 06:18:00,
2013-07-02 02:23:00,63.1,63.0,29.21,North,360,0.0,0.0,100,0.00,,,0.02,Rainwise IP-100,2013-07-02 06:23:00,
2013-07-02 02:28:00,63.1,63.0,29.21,North,360,0.0,0.0,100,0.00,,,0.02,Rainwise IP-100,2013-07-02 06:28:00,
2013-07-02 02:33:00,63.1,63.0,29.21,North,360,0.0,0.0,100,0.00,,,0.02,Rainwise IP-100,2013-07-02 06:33:00,
2013-07-02 02:38:00,63.1,63.0,29.21,North,360,0.0,0.0,100,0.00,,,0.02,Rainwise IP-100,2013-07-02 06:38:00,
2013-07-02 02:43:00,63.0,63.0,29.21,North,360,1.0,1.0,100,0.00,,,0.02,Rainwise IP-100,2013-07-02 06:43:00,
2013-07-02 02:48:00,63.0,63.0,29.20,NNE,22,3.0,4.0,100,0.00,,,0.02,Rainwise IP-100,2013-07-02 06:48:00,
2013-07-02 02:53:00,63.0,63.0,29.20,NNE,22,0.0,4.0,100,0.00,,,0.02,Rainwise IP-100,2013-07-02 06:53:00,
2013-07-02 02:58:00,63.0,63.0,29.19,NNE,22,0.0,3.0,100,0.00,,,0.02,Rainwise IP-100,2013-07-02 06:58:00,
2013-07-02 03:03:00,62.9,61.5,29.21,SSW,202,0.0,3.0,95,0.00,,,0.02,Rainwise IP-100,2013-07-02 07:03:00,
2013-07-02 03:09:00,62.8,61.5,29.20,WSW,247,0.0,0.0,95,0.00,,,0.02,Rainwise IP-100,2013-07-02 07:09:00,
2013-07-02 03:14:00,62.8,61.5,29.20,WSW,247,0.0,0.0,95,0.00,,,0.02,Rainwise IP-100,2013-07-02 07:14:00,
2013-07-02 03:19:00,62.9,61.5,29.20,NNW,337,0.0,2.0,95,0.00,,,0.02,Rainwise IP-100,2013-07-02 07:19:00,
2013-07-02 03:24:00,62.9,61.5,29.20,NNW,337,0.0,0.0,95,0.00,,,0.02,Rainwise IP-100,2013-07-02 07:24:00,
2013-07-02 03:29:00,62.9,61.5,29.20,North,360,2.0,2.0,95,0.00,,,0.02,Rainwise IP-100,2013-07-02 07:29:00,
2013-07-02 03:34:00,62.9,61.5,29.21,North,360,0.0,3.0,95,0.00,,,0.02,Rainwise IP-100,2013-07-02 07:34:00,
2013-07-02 03:39:00,62.9,61.5,29.20,North,360,0.0,0.0,95,0.00,,,0.02,Rainwise IP-100,2013-07-02 07:39:00,
2013-07-02 03:44:00,62.9,61.5,29.20,North,360,0.0,2.0,95,0.00,,,0.02,Rainwise IP-100,2013-07-02 07:44:00,
2013-07-02 03:49:00,62.9,61.5,29.20,North,360,0.0,0.0,95,0.00,,,0.02,Rainwise IP-100,2013-07-02 07:49:00,
2013-07-02 03:54:00,62.8,61.5,29.20,North,360,0.0,0.0,95,0.00,,,0.02,Rainwise IP-100,2013-07-02 07:54:00,
2013-07-02 03:59:00,62.8,61.5,29.20,North,360,0.0,0.0,95,0.00,,,0.02,Rainwise IP-100,2013-07-02 07:59:00,
2013-07-02 04:04:00,62.8,61.5,29.20,North,360,0.0,2.0,94,0.00,,,0.02,Rainwise IP-100,2013-07-02 08:04:00,
2013-07-02 04:10:00,62.8,61.5,29.20,North,360,0.0,0.0,94,0.00,,,0.02,Rainwise IP-100,2013-07-02 08:10:00,
2013-07-02 04:15:00,62.8,61.5,29.21,North,360,0.0,0.0,94,0.00,,,0.02,Rainwise IP-100,2013-07-02 08:15:00,
2013-07-02 04:20:00,62.8,61.0,29.21,North,360,0.0,0.0,93,0.00,,,0.02,Rainwise IP-100,2013-07-02 08:20:00,
2013-07-02 04:25:00,62.8,61.5,29.21,North,360,0.0,0.0,94,0.00,,,0.02,Rainwise IP-100,2013-07-02 08:25:00,
2013-07-02 04:30:00,62.8,61.5,29.20,North,360,0.0,0.0,94,0.00,,,0.02,Rainwise IP-100,2013-07-02 08:30:00,
2013-07-02 04:35:00,62.8,61.5,29.20,North,360,0.0,2.0,94,0.00,,,0.02,Rainwise IP-100,2013-07-02 08:35:00,
2013-07-02 04:40:00,62.8,61.5,29.20,North,360,0.0,1.0,94,0.00,,,0.02,Rainwise IP-100,2013-07-02 08:40:00,
2013-07-02 04:45:00,62.7,61.0,29.20,North,360,1.0,3.0,94,0.00,,,0.02,Rainwise IP-100,2013-07-02 08:45:00,
2013-07-02 04:50:00,62.7,61.0,29.20,North,360,0.0,3.0,94,0.00,,,0.02,Rainwise IP-100,2013-07-02 08:50:00,
2013-07-02 04:55:00,62.7,61.0,29.20,North,360,0.0,1.0,94,0.00,,,0.02,Rainwise IP-100,2013-07-02 08:55:00,
2013-07-02 05:00:00,62.6,61.0,29.21,North,360,0.0,2.0,94,0.00,,,0.02,Rainwise IP-100,2013-07-02 09:00:00,
2013-07-02 05:05:00,62.6,60.5,29.21,North,360,0.0,0.0,93,0.00,,,0.02,Rainwise IP-100,2013-07-02 09:05:00,
2013-07-02 05:11:00,62.6,60.0,29.20,North,360,0.0,0.0,92,0.00,,,0.02,Rainwise IP-100,2013-07-02 09:11:00,
2013-07-02 05:16:00,62.6,60.0,29.20,North,360,0.0,0.0,92,0.00,,,0.02,Rainwise IP-100,2013-07-02 09:16:00,
2013-07-02 05:21:00,62.6,60.0,29.20,North,360,0.0,0.0,92,0.00,,,0.02,Rainwise IP-100,2013-07-02 09:21:00,
2013-07-02 05:26:00,62.6,60.0,29.20,North,360,0.0,0.0,92,0.00,,,0.02,Rainwise IP-100,2013-07-02 09:26:00,
2013-07-02 05:31:00,62.6,60.0,29.20,North,360,0.0,0.0,92,0.00,,,0.02,Rainwise IP-100,2013-07-02 09:31:00,
2013-07-02 05:36:00,62.6,60.0,29.20,North,360,0.0,0.0,92,0.00,,,0.02,Rainwise IP-100,2013-07-02 09:36:00,
2013-07-02 05:41:00,62.6,60.0,29.20,North,360,0.0,0.0,92,0.00,,,0.02,Rainwise IP-100,2013-07-02 09:41:00,
2013-07-02 05:46:00,62.7,60.5,29.21,North,360,0.0,0.0,93,0.00,,,0.02,Rainwise IP-100,2013-07-02 09:46:00,
2013-07-02 05:49:00,62.7,61.5,29.21,North,360,0.0,0.0,96,0.00,,,0.02,Rainwise IP-100,2013-07-02 09:49:00,
2013-07-02 05:54:00,62.7,61.0,29.21,North,360,0.0,0.0,95,0.00,,,0.02,Rainwise IP-100,2013-07-02 09:54:00,
2013-07-02 05:59:00,62.7,61.0,29.21,North,360,0.0,0.0,95,0.00,,,0.02,Rainwise IP-100,2013-07-02 09:59:00,
2013-07-02 06:04:00,62.8,61.5,29.21,North,360,0.0,0.0,95,0.00,,,0.02,Rainwise IP-100,2013-07-02 10:04:00,
2013-07-02 06:10:00,62.8,61.5,29.20,North,360,0.0,0.0,94,0.00,,,0.02,Rainwise IP-100,2013-07-02 10:10:00,
2013-07-02 06:15:00,62.9,61.5,29.21,North,360,0.0,0.0,95,0.00,,,0.02,Rainwise IP-100,2013-07-02 10:15:00,
2013-07-02 06:20:00,62.9,61.5,29.20,North,360,0.0,0.0,94,0.00,,,0.02,Rainwise IP-100,2013-07-02 10:20:00,
2013-07-02 06:25:00,63.1,61.5,29.21,NW,315,0.0,1.0,94,0.00,,,0.02,Rainwise IP-100,2013-07-02 10:25:00,
2013-07-02 06:30:00,63.1,61.5,29.21,West,270,0.0,0.0,94,0.00,,,0.02,Rainwise IP-100,2013-07-02 10:30:00,
2013-07-02 06:35:00,63.1,61.5,29.21,SE,135,2.0,5.0,94,0.00,,,0.02,Rainwise IP-100,2013-07-02 10:35:00,
2013-07-02 06:40:00,63.2,61.5,29.21,SE,135,0.0,4.0,94,0.00,,,0.02,Rainwise IP-100,2013-07-02 10:40:00,
2013-07-02 06:45:00,63.3,61.5,29.21,SE,135,0.0,1.0,93,0.00,,,0.02,Rainwise IP-100,2013-07-02 10:45:00,
2013-07-02 06:50:00,63.3,61.5,29.21,SE,135,0.0,3.0,94,0.00,,,0.02,Rainwise IP-100,2013-07-02 10:50:00,
2013-07-02 06:55:00,63.4,61.5,29.21,SE,135,0.0,5.0,94,0.00,,,0.02,Rainwise IP-100,2013-07-02 10:55:00,
2013-07-02 07:00:00,63.5,62.0,29.21,SSW,202,0.0,2.0,95,0.00,,,0.02,Rainwise IP-100,2013-07-02 11:00:00,
2013-07-02 07:05:00,63.6,62.0,29.21,SW,225,0.0,2.0,95,0.00,,,0.02,Rainwise IP-100,2013-07-02 11:05:00,
2013-07-02 07:11:00,63.6,62.0,29.22,SW,225,0.0,3.0,95,0.00,,,0.02,Rainwise IP-100,2013-07-02 11:11:00,
2013-07-02 07:16:00,63.6,61.5,29.22,SW,225,0.0,0.0,94,0.00,,,0.02,Rainwise IP-100,2013-07-02 11:16:00,
2013-07-02 07:21:00,63.9,62.5,29.21,SW,225,0.0,0.0,95,0.00,,,0.02,Rainwise IP-100,2013-07-02 11:21:00,
2013-07-02 07:26:00,64.0,62.5,29.21,SW,225,0.0,4.0,95,0.00,,,0.02,Rainwise IP-100,2013-07-02 11:26:00,
2013-07-02 07:31:00,64.0,62.0,29.22,WSW,247,0.0,4.0,94,0.00,,,0.02,Rainwise IP-100,2013-07-02 11:31:00,
2013-07-02 07:36:00,63.9,62.0,29.23,ESE,112,2.0,3.0,94,0.00,,,0.02,Rainwise IP-100,2013-07-02 11:36:00,
2013-07-02 07:41:00,63.9,62.0,29.22,ESE,112,0.0,4.0,94,0.00,,,0.02,Rainwise IP-100,2013-07-02 11:41:00,
2013-07-02 07:46:00,64.2,62.0,29.22,SE,135,0.0,5.0,94,0.00,,,0.02,Rainwise IP-100,2013-07-02 11:46:00,
2013-07-02 07:51:00,64.6,62.5,29.22,ESE,112,0.0,1.0,94,0.00,,,0.02,Rainwise IP-100,2013-07-02 11:51:00,
2013-07-02 07:56:00,64.8,63.0,29.22,SW,225,0.0,3.0,94,0.00,,,0.02,Rainwise IP-100,2013-07-02 11:56:00,
2013-07-02 08:01:00,64.7,62.5,29.22,SW,225,0.0,0.0,93,0.00,,,0.02,Rainwise IP-100,2013-07-02 12:01:00,
2013-07-02 08:07:00,64.7,62.5,29.22,SW,225,0.0,0.0,94,0.00,,,0.02,Rainwise IP-100,2013-07-02 12:07:00,
2013-07-02 08:12:00,64.8,63.0,29.23,SW,225,0.0,3.0,94,0.00,,,0.02,Rainwise IP-100,2013-07-02 12:12:00,
2013-07-02 08:17:00,65.1,63.0,29.23,West,270,1.0,3.0,94,0.00,,,0.02,Rainwise IP-100,2013-07-02 12:17:00,
2013-07-02 08:22:00,65.1,63.0,29.23,West,270,0.0,5.0,94,0.00,,,0.02,Rainwise IP-100,2013-07-02 12:22:00,
2013-07-02 08:27:00,65.3,63.5,29.24,WNW,292,0.0,5.0,93,0.00,,,0.02,Rainwise IP-100,2013-07-02 12:27:00,
2013-07-02 08:32:00,65.3,63.5,29.24,WNW,292,2.0,6.0,93,0.00,,,0.02,Rainwise IP-100,2013-07-02 12:32:00,
2013-07-02 08:37:00,65.8,64.0,29.24,WNW,292,1.0,3.0,93,0.00,,,0.02,Rainwise IP-100,2013-07-02 12:37:00,
2013-07-02 08:42:00,65.7,63.5,29.24,WNW,292,0.0,4.0,93,0.00,,,0.02,Rainwise IP-100,2013-07-02 12:42:00,
2013-07-02 08:47:00,65.9,64.0,29.25,NNW,337,0.0,1.0,93,0.00,,,0.02,Rainwise IP-100,2013-07-02 12:47:00,
2013-07-02 08:52:00,66.2,64.0,29.25,NNW,337,0.0,2.0,93,0.00,,,0.02,Rainwise IP-100,2013-07-02 12:52:00,
2013-07-02 08:57:00,66.6,64.5,29.25,NNW,337,2.0,2.0,93,0.00,,,0.02,Rainwise IP-100,2013-07-02 12:57:00,
2013-07-02 09:02:00,66.8,64.5,29.25,NNW,337,0.0,3.0,92,0.00,,,0.02,Rainwise IP-100,2013-07-02 13:02:00,
2013-07-02 09:08:00,67.0,67.0,29.26,NNW,337,0.0,1.0,100,0.00,,,0.02,Rainwise IP-100,2013-07-02 13:08:00,
2013-07-02 09:13:00,67.1,67.0,29.25,NNW,337,0.0,1.0,100,0.00,,,0.02,Rainwise IP-100,2013-07-02 13:13:00,
2013-07-02 09:18:00,67.3,67.5,29.25,NNW,337,0.0,0.0,100,0.00,,,0.02,Rainwise IP-100,2013-07-02 13:18:00,
2013-07-02 09:23:00,67.7,67.5,29.25,NNW,337,0.0,0.0,100,0.00,,,0.02,Rainwise IP-100,2013-07-02 13:23:00,
2013-07-02 09:28:00,67.7,67.5,29.25,East,90,4.0,6.0,100,0.00,,,0.02,Rainwise IP-100,2013-07-02 13:28:00,
2013-07-02 09:33:00,68.1,68.0,29.25,NE,45,2.0,6.0,100,0.00,,,0.02,Rainwise IP-100,2013-07-02 13:33:00,
2013-07-02 09:38:00,68.9,69.0,29.25,SE,135,2.0,3.0,100,0.00,,,0.02,Rainwise IP-100,2013-07-02 13:38:00,
2013-07-02 09:43:00,69.5,69.7,29.25,SE,135,0.0,4.0,100,0.00,,,0.02,Rainwise IP-100,2013-07-02 13:43:00,
2013-07-02 09:48:00,70.2,70.0,29.26,SW,225,4.0,4.0,100,0.00,,,0.02,Rainwise IP-100,2013-07-02 13:48:00,
2013-07-02 09:53:00,70.7,70.5,29.26,WSW,247,3.0,5.0,100,0.00,,,0.02,Rainwise IP-100,2013-07-02 13:53:00,
2013-07-02 09:58:00,69.9,69.7,29.26,WSW,247,2.0,5.0,99,0.00,,,0.02,Rainwise IP-100,2013-07-02 13:58:00,
2013-07-02 10:03:00,70.0,69.3,29.26,NW,315,6.0,6.0,97,0.00,,,0.02,Rainwise IP-100,2013-07-02 14:03:00,
2013-07-02 10:09:00,69.8,67.0,29.26,WNW,292,0.0,6.0,92,0.00,,,0.02,Rainwise IP-100,2013-07-02 14:09:00,
2013-07-02 10:14:00,69.8,66.7,29.26,NW,315,3.0,6.0,91,0.00,,,0.02,Rainwise IP-100,2013-07-02 14:14:00,
2013-07-02 10:19:00,70.5,67.5,29.26,WSW,247,0.0,5.0,91,0.00,,,0.02,Rainwise IP-100,2013-07-02 14:19:00,
2013-07-02 10:24:00,71.9,69.7,29.27,WSW,247,0.0,1.0,93,0.00,,,0.02,Rainwise IP-100,2013-07-02 14:24:00,
2013-07-02 10:29:00,72.7,70.5,29.27,SE,135,0.0,5.0,93,0.00,,,0.02,Rainwise IP-100,2013-07-02 14:29:00,
2013-07-02 10:34:00,71.9,68.0,29.27,WSW,247,2.0,7.0,87,0.00,,,0.02,Rainwise IP-100,2013-07-02 14:34:00,
2013-07-02 10:39:00,71.3,67.5,29.27,WSW,247,2.0,7.0,88,0.00,,,0.02,Rainwise IP-100,2013-07-02 14:39:00,
2013-07-02 10:44:00,70.9,66.3,29.27,WNW,292,0.0,5.0,86,0.00,,,0.02,Rainwise IP-100,2013-07-02 14:44:00,
2013-07-02 10:49:00,71.2,68.0,29.27,WNW,292,4.0,5.0,90,0.00,,,0.02,Rainwise IP-100,2013-07-02 14:49:00,
2013-07-02 10:54:00,71.5,68.0,29.27,NNE,22,2.0,6.0,89,0.00,,,0.02,Rainwise IP-100,2013-07-02 14:54:00,
2013-07-02 10:59:00,72.9,69.7,29.27,ENE,67,1.0,5.0,89,0.00,,,0.02,Rainwise IP-100,2013-07-02 14:59:00,
2013-07-02 11:04:00,73.3,67.5,29.27,WNW,292,5.0,5.0,82,0.00,,,0.02,Rainwise IP-100,2013-07-02 15:04:00,
2013-07-02 11:10:00,73.7,69.3,29.28,WNW,292,1.0,6.0,86,0.00,,,0.02,Rainwise IP-100,2013-07-02 15:10:00,
2013-07-02 11:15:00,74.0,69.3,29.28,West,270,0.0,5.0,85,0.00,,,0.02,Rainwise IP-100,2013-07-02 15:15:00,
2013-07-02 11:20:00,74.9,70.0,29.28,WNW,292,5.0,5.0,84,0.00,,,0.02,Rainwise IP-100,2013-07-02 15:20:00,
2013-07-02 11:25:00,74.9,69.7,29.28,WSW,247,2.0,6.0,83,0.00,,,0.02,Rainwise IP-100,2013-07-02 15:25:00,
2013-07-02 11:30:00,75.3,71.0,29.29,NW,315,0.0,4.0,85,0.00,,,0.02,Rainwise IP-100,2013-07-02 15:30:00,
2013-07-02 11:35:00,76.1,70.5,29.29,West,270,2.0,5.0,83,0.00,,,0.02,Rainwise IP-100,2013-07-02 15:35:00,
2013-07-02 11:40:00,76.4,71.3,29.29,SW,225,3.0,5.0,84,0.00,,,0.02,Rainwise IP-100,2013-07-02 15:40:00,
2013-07-02 11:45:00,76.2,71.0,29.29,WSW,247,2.0,6.0,84,0.00,,,0.02,Rainwise IP-100,2013-07-02 15:45:00,
2013-07-02 11:50:00,75.5,69.7,29.29,WSW,247,1.0,5.0,82,0.00,,,0.02,Rainwise IP-100,2013-07-02 15:50:00,
2013-07-02 11:55:00,75.4,69.7,29.29,WSW,247,0.0,5.0,82,0.00,,,0.02,Rainwise IP-100,2013-07-02 15:55:00,
2013-07-02 12:00:00,75.5,71.0,29.29,WSW,247,1.0,5.0,85,0.00,,,0.02,Rainwise IP-100,2013-07-02 16:00:00,
2013-07-02 12:05:00,75.9,71.0,29.28,WSW,247,0.0,3.0,84,0.00,,,0.02,Rainwise IP-100,2013-07-02 16:05:00,
2013-07-02 12:11:00,76.4,71.0,29.28,SW,225,3.0,4.0,83,0.00,,,0.02,Rainwise IP-100,2013-07-02 16:11:00,
2013-07-02 12:16:00,76.4,71.0,29.28,WSW,247,0.0,4.0,83,0.00,,,0.02,Rainwise IP-100,2013-07-02 16:16:00,
2013-07-02 12:21:00,76.2,71.0,29.29,WSW,247,1.0,4.0,84,0.00,,,0.02,Rainwise IP-100,2013-07-02 16:21:00,
2013-07-02 12:26:00,76.6,71.7,29.29,WSW,247,3.0,4.0,85,0.00,,,0.02,Rainwise IP-100,2013-07-02 16:26:00,
2013-07-02 12:31:00,77.7,71.7,29.28,SW,225,3.0,6.0,81,0.00,,,0.02,Rainwise IP-100,2013-07-02 16:31:00,
2013-07-02 12:36:00,77.8,71.3,29.28,SW,225,3.0,6.0,80,0.00,,,0.02,Rainwise IP-100,2013-07-02 16:36:00,
2013-07-02 12:41:00,77.8,71.7,29.28,WSW,247,4.0,6.0,81,0.00,,,0.02,Rainwise IP-100,2013-07-02 16:41:00,
2013-07-02 12:46:00,77.8,72.0,29.28,WSW,247,2.0,5.0,82,0.00,,,0.02,Rainwise IP-100,2013-07-02 16:46:00,
2013-07-02 12:51:00,78.2,72.0,29.28,SW,225,2.0,6.0,81,0.00,,,0.02,Rainwise IP-100,2013-07-02 16:51:00,
2013-07-02 12:56:00,78.5,72.7,29.28,SW,225,0.0,4.0,82,0.00,,,0.02,Rainwise IP-100,2013-07-02 16:56:00,
2013-07-02 13:01:00,78.7,73.0,29.27,SW,225,1.0,3.0,83,0.00,,,0.02,Rainwise IP-100,2013-07-02 17:01:00,
2013-07-02 13:06:00,79.2,73.0,29.28,SW,225,0.0,3.0,81,0.00,,,0.02,Rainwise IP-100,2013-07-02 17:06:00,
2013-07-02 13:12:00,79.5,73.0,29.28,SW,225,0.0,3.0,80,0.00,,,0.02,Rainwise IP-100,2013-07-02 17:12:00,
2013-07-02 13:17:00,79.7,72.7,29.27,SW,225,0.0,1.0,79,0.00,,,0.02,Rainwise IP-100,2013-07-02 17:17:00,
2013-07-02 13:22:00,79.5,73.0,29.27,ESE,112,0.0,3.0,80,0.00,,,0.02,Rainwise IP-100,2013-07-02 17:22:00,
2013-07-02 13:27:00,78.6,72.3,29.27,SSE,157,2.0,6.0,81,0.00,,,0.02,Rainwise IP-100,2013-07-02 17:27:00,
2013-07-02 13:32:00,75.6,69.7,29.28,SSE,157,5.0,13.0,82,0.00,,,0.02,Rainwise IP-100,2013-07-02 17:32:00,
2013-07-02 13:37:00,74.4,69.0,29.29,SSE,157,8.0,11.0,83,0.00,,,0.02,Rainwise IP-100,2013-07-02 17:37:00,
2013-07-02 13:42:00,73.2,69.3,29.28,SSE,157,9.0,12.0,87,0.06,,,0.03,Rainwise IP-100,2013-07-02 17:42:00,
2013-07-02 13:47:00,72.9,69.7,29.27,SE,135,3.0,15.0,89,0.06,,,0.03,Rainwise IP-100,2013-07-02 17:47:00,
2013-07-02 13:52:00,73.1,69.7,29.27,ESE,112,6.0,8.0,89,0.00,,,0.03,Rainwise IP-100,2013-07-02 17:52:00,
2013-07-02 13:57:00,73.9,70.5,29.27,SE,135,6.0,9.0,88,0.00,,,0.03,Rainwise IP-100,2013-07-02 17:57:00,
2013-07-02 14:02:00,75.4,71.3,29.26,ESE,112,5.0,9.0,87,0.00,,,0.03,Rainwise IP-100,2013-07-02 18:02:00,
2013-07-02 14:07:00,76.6,72.7,29.26,SE,135,6.0,9.0,88,0.00,,,0.03,Rainwise IP-100,2013-07-02 18:07:00,
2013-07-02 14:13:00,77.1,73.0,29.27,SE,135,7.0,10.0,87,0.00,,,0.03,Rainwise IP-100,2013-07-02 18:13:00,
2013-07-02 14:18:00,77.8,73.7,29.27,SE,135,7.0,9.0,87,0.00,,,0.03,Rainwise IP-100,2013-07-02 18:18:00,
2013-07-02 14:23:00,77.7,73.0,29.27,SE,135,5.0,10.0,85,0.00,,,0.03,Rainwise IP-100,2013-07-02 18:23:00,
2013-07-02 14:28:00,77.8,73.7,29.27,SE,135,6.0,9.0,87,0.00,,,0.03,Rainwise IP-100,2013-07-02 18:28:00,
2013-07-02 14:33:00,77.9,72.7,29.27,SE,135,6.0,8.0,84,0.00,,,0.03,Rainwise IP-100,2013-07-02 18:33:00,
2013-07-02 14:38:00,78.3,73.3,29.27,SSE,157,5.0,9.0,85,0.00,,,0.03,Rainwise IP-100,2013-07-02 18:38:00,
2013-07-02 14:43:00,78.7,73.7,29.27,SW,225,5.0,7.0,85,0.00,,,0.03,Rainwise IP-100,2013-07-02 18:43:00,
2013-07-02 14:48:00,79.3,75.0,29.28,SSW,202,4.0,6.0,87,0.00,,,0.03,Rainwise IP-100,2013-07-02 18:48:00,
2013-07-02 14:53:00,80.6,74.3,29.27,SE,135,7.0,9.0,82,0.00,,,0.03,Rainwise IP-100,2013-07-02 18:53:00,
2013-07-02 14:58:00,81.3,74.0,29.28,ESE,112,5.0,9.0,79,0.00,,,0.03,Rainwise IP-100,2013-07-02 18:58:00,
2013-07-02 15:03:00,82.5,73.3,29.28,South,180,5.0,9.0,74,0.00,,,0.03,Rainwise IP-100,2013-07-02 19:03:00,
2013-07-02 15:09:00,82.6,72.3,29.29,South,180,10.0,12.0,71,0.00,,,0.03,Rainwise IP-100,2013-07-02 19:09:00,
2013-07-02 15:14:00,81.9,72.3,29.29,SE,135,6.0,11.0,73,0.00,,,0.03,Rainwise IP-100,2013-07-02 19:14:00,
2013-07-02 15:19:00,81.5,72.3,29.28,SE,135,7.0,9.0,73,0.00,,,0.03,Rainwise IP-100,2013-07-02 19:19:00,
2013-07-02 15:24:00,80.9,72.0,29.28,SSE,157,5.0,10.0,74,0.00,,,0.03,Rainwise IP-100,2013-07-02 19:24:00,
2013-07-02 15:29:00,81.1,72.7,29.28,SE,135,6.0,9.0,76,0.00,,,0.03,Rainwise IP-100,2013-07-02 19:29:00,
2013-07-02 15:34:00,80.8,71.0,29.27,SE,135,7.0,12.0,72,0.00,,,0.03,Rainwise IP-100,2013-07-02 19:34:00,
2013-07-02 15:39:00,81.1,72.0,29.28,East,90,6.0,12.0,74,0.00,,,0.03,Rainwise IP-100,2013-07-02 19:39:00,
2013-07-02 15:44:00,80.8,70.5,29.28,South,180,8.0,14.0,71,0.06,,,0.04,Rainwise IP-100,2013-07-02 19:44:00,
2013-07-02 15:49:00,81.5,70.5,29.28,South,180,7.0,14.0,69,0.06,,,0.04,Rainwise IP-100,2013-07-02 19:49:00,
2013-07-02 15:54:00,82.0,71.3,29.28,South,180,6.0,14.0,70,0.00,,,0.04,Rainwise IP-100,2013-07-02 19:54:00,
2013-07-02 15:59:00,81.2,70.5,29.28,SSE,157,8.0,13.0,69,0.00,,,0.04,Rainwise IP-100,2013-07-02 19:59:00,
2013-07-02 16:04:00,80.9,71.7,29.28,SW,225,6.0,12.0,73,0.00,,,0.04,Rainwise IP-100,2013-07-02 20:04:00,
2013-07-02 16:10:00,81.6,71.7,29.28,South,180,7.0,9.0,72,0.00,,,0.04,Rainwise IP-100,2013-07-02 20:10:00,
2013-07-02 16:15:00,82.7,72.7,29.28,South,180,7.0,8.0,72,0.00,,,0.04,Rainwise IP-100,2013-07-02 20:15:00,
2013-07-02 16:20:00,82.5,71.3,29.28,SE,135,6.0,12.0,69,0.00,,,0.04,Rainwise IP-100,2013-07-02 20:20:00,
2013-07-02 16:25:00,81.2,71.7,29.28,SSE,157,10.0,10.0,72,0.00,,,0.04,Rainwise IP-100,2013-07-02 20:25:00,
2013-07-02 16:30:00,80.1,71.0,29.28,SE,135,6.0,12.0,74,0.00,,,0.04,Rainwise IP-100,2013-07-02 20:30:00,
2013-07-02 16:35:00,79.9,71.3,29.28,SSE,157,6.0,10.0,75,0.00,,,0.04,Rainwise IP-100,2013-07-02 20:35:00,
2013-07-02 16:40:00,79.9,71.7,29.27,SE,135,4.0,9.0,76,0.00,,,0.04,Rainwise IP-100,2013-07-02 20:40:00,
2013-07-02 16:45:00,79.9,71.7,29.27,SE,135,3.0,9.0,76,0.00,,,0.04,Rainwise IP-100,2013-07-02 20:45:00,
2013-07-02 16:50:00,80.2,71.7,29.27,ESE,112,3.0,9.0,75,0.00,,,0.04,Rainwise IP-100,2013-07-02 20:50:00,
2013-07-02 16:55:00,80.2,71.3,29.28,SSW,202,3.0,9.0,74,0.00,,,0.04,Rainwise IP-100,2013-07-02 20:55:00,
2013-07-02 17:00:00,79.9,71.7,29.27,South,180,3.0,9.0,76,0.00,,,0.04,Rainwise IP-100,2013-07-02 21:00:00,
2013-07-02 17:05:00,79.9,71.3,29.27,South,180,4.0,7.0,75,0.00,,,0.04,Rainwise IP-100,2013-07-02 21:05:00,
2013-07-02 17:11:00,79.9,71.3,29.27,SE,135,6.0,8.0,75,0.00,,,0.04,Rainwise IP-100,2013-07-02 21:11:00,
2013-07-02 17:16:00,79.9,71.7,29.27,South,180,4.0,7.0,76,0.00,,,0.04,Rainwise IP-100,2013-07-02 21:16:00,
2013-07-02 17:21:00,79.8,71.7,29.27,SSE,157,1.0,7.0,76,0.00,,,0.04,Rainwise IP-100,2013-07-02 21:21:00,
2013-07-02 17:26:00,79.6,71.7,29.27,SE,135,5.0,7.0,76,0.00,,,0.04,Rainwise IP-100,2013-07-02 21:26:00,
2013-07-02 17:31:00,79.5,72.0,29.27,SSW,202,1.0,6.0,77,0.00,,,0.04,Rainwise IP-100,2013-07-02 21:31:00,
2013-07-02 17:36:00,79.2,71.3,29.27,SW,225,4.0,9.0,76,0.00,,,0.04,Rainwise IP-100,2013-07-02 21:36:00,
2013-07-02 17:41:00,79.2,72.0,29.27,SSE,157,2.0,7.0,78,0.00,,,0.04,Rainwise IP-100,2013-07-02 21:41:00,
2013-07-02 17:46:00,79.1,71.7,29.27,SE,135,6.0,7.0,78,0.00,,,0.04,Rainwise IP-100,2013-07-02 21:46:00,
2013-07-02 17:51:00,79.3,72.0,29.26,SSE,157,4.0,7.0,78,0.00,,,0.04,Rainwise IP-100,2013-07-02 21:51:00,
2013-07-02 17:56:00,79.2,71.3,29.26,SSE,157,5.0,8.0,76,0.00,,,0.04,Rainwise IP-100,2013-07-02 21:56:00,
2013-07-02 18:01:00,79.3,72.0,29.26,SSE,157,3.0,7.0,78,0.00,,,0.04,Rainwise IP-100,2013-07-02 22:01:00,
2013-07-02 18:07:00,79.0,71.3,29.26,SE,135,8.0,8.0,77,0.00,,,0.04,Rainwise IP-100,2013-07-02 22:07:00,
2013-07-02 18:12:00,78.9,71.7,29.26,ESE,112,5.0,8.0,78,0.00,,,0.04,Rainwise IP-100,2013-07-02 22:12:00,
2013-07-02 18:17:00,78.9,71.7,29.27,SSW,202,4.0,9.0,78,0.00,,,0.04,Rainwise IP-100,2013-07-02 22:17:00,
2013-07-02 18:22:00,78.9,71.7,29.27,SSE,157,4.0,8.0,78,0.00,,,0.04,Rainwise IP-100,2013-07-02 22:22:00,
2013-07-02 18:27:00,78.9,71.7,29.27,SE,135,6.0,8.0,78,0.00,,,0.04,Rainwise IP-100,2013-07-02 22:27:00,
2013-07-02 18:32:00,78.7,71.7,29.27,SSE,157,3.0,7.0,79,0.00,,,0.04,Rainwise IP-100,2013-07-02 22:32:00,
2013-07-02 18:37:00,78.4,72.0,29.27,SW,225,1.0,4.0,81,0.00,,,0.04,Rainwise IP-100,2013-07-02 22:37:00,
2013-07-02 18:42:00,78.0,72.0,29.27,SW,225,0.0,1.0,81,0.00,,,0.04,Rainwise IP-100,2013-07-02 22:42:00,
2013-07-02 18:47:00,77.9,72.0,29.27,ESE,112,6.0,6.0,81,0.00,,,0.04,Rainwise IP-100,2013-07-02 22:47:00,
2013-07-02 18:52:00,78.1,72.0,29.27,SE,135,3.0,7.0,81,0.00,,,0.04,Rainwise IP-100,2013-07-02 22:52:00,
2013-07-02 18:57:00,78.2,72.0,29.27,SE,135,2.0,6.0,81,0.00,,,0.04,Rainwise IP-100,2013-07-02 22:57:00,
2013-07-02 19:02:00,78.2,71.7,29.27,SE,135,6.0,9.0,80,0.00,,,0.04,Rainwise IP-100,2013-07-02 23:02:00,
2013-07-02 19:08:00,78.5,72.3,29.27,SE,135,4.0,8.0,81,0.00,,,0.04,Rainwise IP-100,2013-07-02 23:08:00,
2013-07-02 19:13:00,78.5,72.3,29.28,SSW,202,4.0,7.0,81,0.00,,,0.04,Rainwise IP-100,2013-07-02 23:13:00,
2013-07-02 19:18:00,78.5,72.3,29.28,SSW,202,3.0,7.0,81,0.00,,,0.04,Rainwise IP-100,2013-07-02 23:18:00,
2013-07-02 19:23:00,78.5,72.3,29.29,SSE,157,2.0,5.0,81,0.00,,,0.04,Rainwise IP-100,2013-07-02 23:23:00,
2013-07-02 19:28:00,78.3,72.7,29.29,South,180,2.0,5.0,83,0.00,,,0.04,Rainwise IP-100,2013-07-02 23:28:00,
2013-07-02 19:29:00,77.9,72.0,29.29,SSE,157,3.0,9.0,81,0.00,,,0.04,Rainwise IP-100,2013-07-02 23:29:00,
2013-07-02 19:34:00,77.5,71.7,29.29,SE,135,6.0,10.0,81,0.00,,,0.04,Rainwise IP-100,2013-07-02 23:34:00,
2013-07-02 19:39:00,77.6,71.3,29.29,SSE,157,7.0,9.0,80,0.00,,,0.04,Rainwise IP-100,2013-07-02 23:39:00,
2013-07-02 19:44:00,77.6,71.3,29.29,SSE,157,4.0,11.0,80,0.00,,,0.04,Rainwise IP-100,2013-07-02 23:44:00,
2013-07-02 19:49:00,77.4,71.0,29.29,SE,135,6.0,10.0,80,0.00,,,0.04,Rainwise IP-100,2013-07-02 23:49:00,
2013-07-02 19:54:00,77.2,71.0,29.30,SSE,157,7.0,12.0,80,0.00,,,0.04,Rainwise IP-100,2013-07-02 23:54:00,
2013-07-02 19:56:00,77.2,71.0,29.30,SE,135,3.0,10.0,80,0.00,,,0.04,Rainwise IP-100,2013-07-02 23:56:00,
2013-07-02 20:01:00,76.9,70.5,29.30,SSE,157,5.0,9.0,80,0.00,,,0.04,Rainwise IP-100,2013-07-03 00:01:00,
2013-07-02 20:07:00,76.8,70.0,29.30,SE,135,6.0,11.0,80,0.00,,,0.04,Rainwise IP-100,2013-07-03 00:07:00,
2013-07-02 20:12:00,76.7,69.7,29.30,SSE,157,5.0,9.0,79,0.00,,,0.04,Rainwise IP-100,2013-07-03 00:12:00,
2013-07-02 20:17:00,76.6,70.0,29.31,SSW,202,4.0,10.0,80,0.00,,,0.04,Rainwise IP-100,2013-07-03 00:17:00,
2013-07-02 20:22:00,76.4,70.5,29.31,NNW,337,3.0,7.0,81,0.00,,,0.04,Rainwise IP-100,2013-07-03 00:22:00,
2013-07-02 20:23:00,76.5,70.5,29.31,NW,315,1.0,7.0,82,0.00,,,0.04,Rainwise IP-100,2013-07-03 00:23:00,
2013-07-02 20:28:00,75.5,70.5,29.31,WNW,292,0.0,7.0,84,0.00,,,0.04,Rainwise IP-100,2013-07-03 00:28:00,
2013-07-02 20:33:00,75.0,70.0,29.31,ESE,112,6.0,7.0,84,0.00,,,0.04,Rainwise IP-100,2013-07-03 00:33:00,
2013-07-02 20:38:00,75.0,70.0,29.31,North,360,1.0,7.0,84,0.00,,,0.04,Rainwise IP-100,2013-07-03 00:38:00,
2013-07-02 20:43:00,74.3,69.3,29.31,NNE,22,5.0,6.0,84,0.00,,,0.04,Rainwise IP-100,2013-07-03 00:43:00,
2013-07-02 20:48:00,73.3,69.0,29.30,North,360,2.0,6.0,85,0.00,,,0.04,Rainwise IP-100,2013-07-03 00:48:00,
2013-07-02 20:50:00,72.7,67.5,29.30,North,360,4.0,6.0,84,0.00,,,0.04,Rainwise IP-100,2013-07-03 00:50:00,
2013-07-02 20:55:00,71.9,67.5,29.30,North,360,3.0,6.0,86,0.00,,,0.04,Rainwise IP-100,2013-07-03 00:55:00,
2013-07-02 21:00:00,71.3,67.0,29.31,NNE,22,1.0,6.0,87,0.00,,,0.04,Rainwise IP-100,2013-07-03 01:00:00,
2013-07-02 21:02:00,71.3,68.0,29.30,North,360,3.0,6.0,90,0.00,,,0.04,Rainwise IP-100,2013-07-03 01:02:00,
2013-07-02 21:06:00,70.8,66.7,29.30,NNE,22,2.0,6.0,87,0.00,,,0.04,Rainwise IP-100,2013-07-03 01:06:00,
2013-07-02 21:09:00,70.6,66.7,29.30,NNE,22,3.0,5.0,88,0.00,,,0.04,Rainwise IP-100,2013-07-03 01:09:00,
2013-07-02 21:14:00,70.3,67.0,29.30,NNE,22,2.0,6.0,89,0.00,,,0.04,Rainwise IP-100,2013-07-03 01:14:00,
2013-07-02 21:19:00,70.1,67.0,29.30,NNW,337,2.0,6.0,90,0.00,,,0.04,Rainwise IP-100,2013-07-03 01:19:00,
2013-07-02 21:24:00,69.8,66.3,29.29,North,360,0.0,5.0,89,0.00,,,0.04,Rainwise IP-100,2013-07-03 01:24:00,
2013-07-02 21:29:00,69.5,66.7,29.30,NW,315,0.0,5.0,91,0.00,,,0.04,Rainwise IP-100,2013-07-03 01:29:00,
2013-07-02 21:34:00,69.3,66.3,29.30,WNW,292,4.0,5.0,90,0.00,,,0.04,Rainwise IP-100,2013-07-03 01:34:00,
2013-07-02 21:35:00,69.2,66.3,29.30,WNW,292,0.0,5.0,90,0.00,,,0.04,Rainwise IP-100,2013-07-03 01:35:00,
2013-07-02 21:40:00,68.9,66.0,29.30,WNW,292,1.0,4.0,90,0.00,,,0.04,Rainwise IP-100,2013-07-03 01:40:00,
2013-07-02 21:45:00,68.7,66.0,29.31,WNW,292,0.0,3.0,91,0.00,,,0.04,Rainwise IP-100,2013-07-03 01:45:00,
2013-07-02 21:50:00,68.5,65.5,29.31,WNW,292,0.0,1.0,90,0.00,,,0.04,Rainwise IP-100,2013-07-03 01:50:00,
2013-07-02 21:54:00,68.4,66.0,29.31,WNW,292,0.0,0.0,91,0.00,,,0.04,Rainwise IP-100,2013-07-03 01:54:00,
2013-07-02 21:59:00,68.3,65.5,29.31,WNW,292,0.0,0.0,90,0.00,,,0.04,Rainwise IP-100,2013-07-03 01:59:00,
2013-07-02 22:00:00,68.3,65.5,29.31,WNW,292,0.0,0.0,90,0.00,,,0.04,Rainwise IP-100,2013-07-03 02:00:00,
2013-07-02 22:06:00,68.1,65.0,29.31,WNW,292,0.0,0.0,90,0.00,,,0.04,Rainwise IP-100,2013-07-03 02:06:00,
2013-07-02 22:11:00,68.1,65.0,29.31,WNW,292,0.0,0.0,90,0.00,,,0.04,Rainwise IP-100,2013-07-03 02:11:00,
2013-07-02 22:16:00,68.0,65.0,29.31,WNW,292,0.0,0.0,90,0.00,,,0.04,Rainwise IP-100,2013-07-03 02:16:00,
2013-07-02 22:21:00,67.9,65.0,29.31,WNW,292,0.0,0.0,90,0.00,,,0.04,Rainwise IP-100,2013-07-03 02:21:00,
2013-07-02 22:26:00,68.1,65.5,29.30,WNW,292,1.0,3.0,91,0.00,,,0.04,Rainwise IP-100,2013-07-03 02:26:00,
2013-07-02 22:31:00,68.1,65.5,29.30,WNW,292,0.0,2.0,91,0.00,,,0.04,Rainwise IP-100,2013-07-03 02:31:00,
2013-07-02 22:33:00,68.2,66.7,29.30,WNW,292,0.0,0.0,96,0.00,,,0.04,Rainwise IP-100,2013-07-03 02:33:00,
2013-07-02 22:38:00,67.9,66.7,29.30,WNW,292,0.0,0.0,96,0.00,,,0.04,Rainwise IP-100,2013-07-03 02:38:00,
2013-07-02 22:43:00,67.7,66.3,29.29,WNW,292,0.0,0.0,95,0.00,,,0.04,Rainwise IP-100,2013-07-03 02:43:00,
2013-07-02 22:48:00,67.7,66.3,29.29,WNW,292,0.0,0.0,96,0.00,,,0.04,Rainwise IP-100,2013-07-03 02:48:00,
2013-07-02 22:51:00,67.4,65.0,29.29,WNW,292,0.0,0.0,91,0.00,,,0.04,Rainwise IP-100,2013-07-03 02:51:00,
2013-07-02 22:56:00,67.4,65.0,29.29,WNW,292,0.0,0.0,91,0.00,,,0.04,Rainwise IP-100,2013-07-03 02:56:00,
2013-07-02 23:01:00,67.3,65.0,29.29,WNW,292,0.0,0.0,91,0.00,,,0.04,Rainwise IP-100,2013-07-03 03:01:00,
2013-07-02 23:04:00,67.3,65.0,29.29,WNW,292,0.0,0.0,91,0.00,,,0.04,Rainwise IP-100,2013-07-03 03:04:00,
2013-07-02 23:10:00,67.2,64.5,29.29,WNW,292,0.0,0.0,91,0.00,,,0.04,Rainwise IP-100,2013-07-03 03:10:00,
2013-07-02 23:15:00,67.1,64.5,29.29,WNW,292,0.0,0.0,91,0.00,,,0.04,Rainwise IP-100,2013-07-03 03:15:00,
2013-07-02 23:20:00,67.1,64.5,29.29,WNW,292,0.0,0.0,91,0.00,,,0.04,Rainwise IP-100,2013-07-03 03:20:00,
2013-07-02 23:25:00,66.9,64.5,29.29,WNW,292,0.0,0.0,91,0.00,,,0.04,Rainwise IP-100,2013-07-03 03:25:00,
2013-07-02 23:30:00,66.9,64.0,29.29,ESE,112,3.0,5.0,90,0.00,,,0.04,Rainwise IP-100,2013-07-03 03:30:00,
2013-07-02 23:35:00,67.2,64.0,29.29,ESE,112,4.0,4.0,90,0.00,,,0.04,Rainwise IP-100,2013-07-03 03:35:00,
2013-07-02 23:40:00,67.4,64.5,29.29,ESE,112,4.0,4.0,90,0.00,,,0.04,Rainwise IP-100,2013-07-03 03:40:00,
2013-07-02 23:44:00,67.9,65.5,29.29,SE,135,6.0,6.0,91,0.00,,,0.04,Rainwise IP-100,2013-07-03 03:44:00,
2013-07-02 23:49:00,68.1,65.5,29.29,SE,135,1.0,6.0,92,0.00,,,0.04,Rainwise IP-100,2013-07-03 03:49:00,
2013-07-02 23:50:00,68.1,65.0,29.29,SE,135,4.0,6.0,90,0.00,,,0.04,Rainwise IP-100,2013-07-03 03:50:00,
2013-07-02 23:55:00,68.2,65.0,29.29,SE,135,4.0,6.0,90,0.00,,,0.04,Rainwise IP-100,2013-07-03 03:55:00,